EW2785 Weather Reports


time (UTC)temp
F
wind
direction
speed
knots
gust
knots
rain 1hr
in
rain 24hr
in
rain mn
in
humidity
%
barometer
mb
20260510043019 50 87 0.9 4.3 0.00 0.01 0.00 88 1009.7
20260510041522 50 107 0.9 1.7 0.00 0.01 0.00 87 1009.7
20260510040015 50 111 0.9 2.6 0.00 0.01 0.01 87 1009.4
20260510034514 50 105 0.0 2.6 0.00 0.01 0.01 87 1009.5
20260510033013 50 165 0.9 2.6 0.00 0.01 0.01 87 1009.8
20260510031522 50 118 0.9 7.0 0.00 0.01 0.01 87 1009.7
20260510030013 50 111 0.0 2.6 0.00 0.01 0.01 88 1009.7
20260510024515 50 114 1.7 6.1 0.00 0.01 0.01 88 1009.8
20260510023014 49 145 0.0 3.5 0.00 0.01 0.01 88 1009.9
20260510021527 49 121 0.9 4.3 0.00 0.01 0.01 88 1009.8
20260510020011 49 119 0.0 2.6 0.00 0.01 0.01 88 1009.8
20260510014524 49 164 0.0 0.0 0.00 0.01 0.01 87 1009.9
20260510013011 49 164 0.0 0.0 0.00 0.01 0.01 87 1010.2
20260510011515 49 164 0.0 2.6 0.00 0.01 0.01 87 1010.4
20260510010020 49 131 0.0 3.5 0.00 0.01 0.01 87 1010.3
20260510004509 49 114 0.0 1.7 0.00 0.01 0.01 87 1010.1
20260510003009 49 113 0.0 2.6 0.00 0.01 0.01 87 1009.8
20260510001510 49 110 0.0 1.7 0.00 0.01 0.01 87 1009.8
20260510000007 50 157 0.0 2.6 0.00 0.01 0.01 87 1009.6
20260509234509 50 116 0.0 2.6 0.00 0.01 0.01 87 1009.4
20260509233006 49 99 0.0 0.9 0.00 0.01 0.01 87 1009.4
20260509231506 49 99 0.0 1.7 0.00 0.01 0.01 87 1009.4
20260509230018 49 88 1.7 3.5 0.00 0.01 0.01 88 1009.3
20260509224504 49 103 0.0 4.3 0.00 0.01 0.01 89 1009.4
20260509223005 49 101 0.0 4.3 0.00 0.01 0.01 89 1009.4
20260509221503 49 109 0.0 2.6 0.00 0.01 0.01 90 1009.6
20260509220002 49 103 0.0 1.7 0.00 0.01 0.01 89 1009.7
20260509214559 49 102 0.0 1.7 0.00 0.01 0.01 90 1009.8
20260509213114 49 126 0.0 1.7 0.00 0.01 0.01 90 1009.9
20260509211604 48 126 0.0 2.6 0.00 0.01 0.01 90 1010.1
20260509210056 49 103 0.0 1.7 0.00 0.01 0.01 89 1010.2
20260509204555 48 103 0.0 0.9 0.01 0.01 0.01 89 1010.2
20260509203053 48 103 0.0 0.9 0.01 0.01 0.01 89 1010.4
20260509201601 48 103 0.0 3.5 0.01 0.01 0.01 88 1010.4
20260509200054 48 171 0.0 1.7 0.01 0.01 0.01 87 1010.5
20260509194557 49 171 0.0 2.6 0.00 0.00 0.00 86 1010.5
20260509193050 49 110 0.0 1.7 0.00 0.00 0.00 85 1010.7
20260509191604 49 120 0.0 5.2 0.00 0.00 0.00 84 1010.7
20260509190049 49 112 0.9 5.2 0.00 0.00 0.00 83 1010.8
20260509184552 50 93 0.9 7.0 0.00 0.00 0.00 82 1010.8
20260509183053 50 80 2.6 6.1 0.00 0.00 0.00 83 1010.9
20260509181551 50 109 0.0 7.0 0.00 0.00 0.00 83 1010.9
20260509180053 50 86 0.9 4.3 0.00 0.00 0.00 84 1011.0
20260509174546 50 103 0.9 6.1 0.00 0.00 0.00 86 1011.1
20260509173054 50 119 0.9 2.6 0.00 0.00 0.00 86 1011.3
20260509171542 49 102 0.0 2.6 0.00 0.00 0.00 86 1011.4
20260509170037 49 130 0.0 3.5 0.00 0.00 0.00 85 1011.8
20260509164535 49 88 0.9 3.5 0.00 0.00 0.00 84 1012.0
20260509163136 50 78 1.7 2.6 0.00 0.00 0.00 83 1012.0
20260509161539 50 115 0.9 3.5 0.00 0.00 0.00 79 1012.3
20260509160035 50 113 0.9 7.0 0.00 0.00 0.00 78 1012.3
20260509154531 50 105 2.6 6.1 0.00 0.00 0.00 77 1012.5
20260509153048 50 92 0.9 5.2 0.00 0.00 0.00 77 1012.7
20260509151529 50 105 1.7 6.1 0.00 0.00 0.00 74 1012.8
20260509150030 50 65 2.6 7.0 0.00 0.00 0.00 72 1012.9
20260509144527 50 105 3.5 7.0 0.00 0.00 0.00 68 1012.7
20260509143027 50 101 0.9 6.1 0.00 0.00 0.00 69 1012.7
20260509141533 49 109 0.0 3.5 0.00 0.00 0.00 68 1012.5
20260509140019 48 190 0.0 0.9 0.00 0.00 0.00 67 1012.4
20260509134517 47 190 0.0 1.7 0.00 0.00 0.00 68 1012.5
20260509133014 46 157 0.0 1.7 0.00 0.00 0.00 70 1012.4
20260509131510 45 178 0.0 1.7 0.00 0.00 0.00 72 1012.5
20260509130005 43 205 0.0 1.7 0.00 0.00 0.00 79 1012.6
20260509124501 41 326 0.0 0.0 0.00 0.00 0.00 85 1012.9
20260509123057 39 321 0.0 0.9 0.00 0.00 0.00 89 1013.1
20260509121553 37 313 0.0 0.9 0.00 0.00 0.00 92 1013.3
20260509120053 36 317 0.0 0.0 0.00 0.00 0.00 92 1013.4
20260509114547 34 317 0.0 2.6 0.00 0.00 0.00 92 1013.5
20260509113047 33 26 0.0 2.6 0.00 0.00 0.00 92 1013.5
20260509111546 31 86 0.0 0.0 0.00 0.00 0.00 92 1013.7
20260509110046 30 86 0.0 0.0 0.00 0.00 0.00 91 1013.7
20260509104545 29 86 0.0 0.0 0.00 0.00 0.00 91 1013.6
20260509103051 28 86 0.0 0.0 0.00 0.00 0.00 90 1013.5
20260509101543 28 86 0.0 0.0 0.00 0.00 0.00 90 1013.6
20260509100042 28 86 0.0 0.0 0.00 0.00 0.00 90 1013.6
20260509094553 28 86 0.0 0.0 0.00 0.00 0.00 90 1013.5
20260509093042 28 86 0.0 0.0 0.00 0.00 0.00 90 1013.4
20260509091549 29 86 0.0 0.0 0.00 0.00 0.00 90 1013.3
20260509090051 29 86 0.0 0.0 0.00 0.00 0.00 90 1013.2
20260509084541 29 86 0.0 0.0 0.00 0.00 0.00 89 1013.2
20260509083040 29 86 0.0 1.7 0.00 0.00 0.00 89 1013.1
20260509081536 29 167 0.0 0.0 0.00 0.00 0.00 89 1013.0
20260509080044 29 167 0.0 0.0 0.00 0.00 0.00 89 1012.9
20260509074543 29 167 0.0 0.0 0.00 0.00 0.00 88 1012.9
20260509073045 29 167 0.0 0.0 0.00 0.00 0.00 88 1013.0
20260509071531 30 167 0.0 0.0 0.00 0.00 0.00 88 1013.1
20260509070030 30 167 0.0 0.0 0.00 0.00 0.00 88 1013.3
20260509064529 30 167 0.0 0.0 0.00 0.00 0.00 88 1013.4
20260509063031 31 167 0.0 0.0 0.00 0.00 0.00 88 1013.5
20260509061526 31 167 0.0 0.0 0.00 0.00 0.00 88 1013.5
20260509060029 32 167 0.0 0.0 0.00 0.00 0.00 87 1013.6
20260509054522 32 167 0.0 0.9 0.00 0.00 0.00 87 1013.6
20260509053030 33 167 0.0 0.0 0.00 0.00 0.00 86 1013.5
20260509051519 33 167 0.0 0.0 0.00 0.00 0.00 86 1013.5
20260509050016 33 167 0.0 0.9 0.00 0.00 0.00 85 1013.2
20260509044513 34 167 0.0 0.0 0.00 0.00 0.00 84 1013.1